Printer-friendly version

IAU Minor Planet Center

Minor Planet Center

MPEC 2006-L06 : 2006 LB

The following Minor Planet Electronic Circular may be linked-to from your own Web pages, but must not otherwise be redistributed electronically.


Read MPEC 2006-L05 Read MPEC 2006-L07


M.P.E.C. 2006-L06                                Issued 2006 June 2, 05:34 UT

     The Minor Planet Electronic Circulars contain information on unusual
         minor planets and routine data on comets.  They are published
   on behalf of Commission 20 of the International Astronomical Union by the
          Minor Planet Center, Smithsonian Astrophysical Observatory,
                          Cambridge, MA 02138, U.S.A.

                  Supported in part by the Brinson Foundation
                  Supported in part by the TABASGO Foundation
             Prepared using the Tamkin Foundation Computer Network

                              MPC@CFA.HARVARD.EDU
          URL http://cfa-www.harvard.edu/iau/mpc.html  ISSN 1523-6714

                                    2006 LB

Observations:
     K06L00B* C2006 06 01.21013 14 16 01.56 -15 40 31.6          21.1 V EL006G96
     K06L00B  C2006 06 01.21618 14 16 03.00 -15 40 18.7          21.1 V EL006G96
     K06L00B  C2006 06 01.22229 14 16 04.47 -15 40 05.4          20.6 V EL006G96
     K06L00B  C2006 06 01.22829 14 16 05.84 -15 39 52.5          21.6 V EL006G96
     K06L00B  C2006 06 01.26907 14 16 15.45 -15 38 23.7          21.1 V EL006G96
     K06L00B  C2006 06 01.27464 14 16 16.78 -15 38 11.9          21.5 V EL006G96
     K06L00B  C2006 06 01.28023 14 16 18.12 -15 37 59.3          20.9 V EL006G96
     K06L00B  C2006 06 01.28580 14 16 19.41 -15 37 46.8          21.2 V EL006G96
     K06L00B  C2006 06 02.17706 14 20 12.15 -15 05 53.9          21.1 V EL006G96
     K06L00B  C2006 06 02.17771 14 20 12.30 -15 05 52.5          20.9 V EL006G96
     K06L00B  C2006 06 02.17836 14 20 12.44 -15 05 51.1          21.1 V EL006G96
     K06L00B  C2006 06 02.17900 14 20 12.62 -15 05 49.3          21.1 V EL006G96

Observer details:
G96 Mt. Lemmon Survey.  Observers A. D. Grauer, R. Hill.  Measurers
    E. C. Beshore, E. J. Christensen, G. J. Garradd, A. R. Gibbs, A. D. Grauer,
    R. E. Hill, R. A. Kowalski, S. M. Larson, R. H. McNaught.  1.5-m reflector
    + CCD.

Orbital elements:
2006 LB                                                  Earth MOID = 0.1227 AU
Epoch 2006 Mar. 6.0 TT = JDT 2453800.5                  MPC
M 322.02559              (2000.0)            P               Q
n   0.45417662     Peri.  354.63134     -0.45118389     +0.88529629
a   1.6761757      Node   248.50789     -0.81421880     -0.46001456
e   0.3227030      Incl.    6.95197     -0.36535030     -0.06809607
P   2.17           H   23.8           G   0.15           U   9
Residuals in seconds of arc
060601 G96  0.3-  0.1+    060601 G96  0.1-  0.0     060602 G96  0.0   0.1-
060601 G96  0.0   0.1-    060601 G96  0.0   0.4-    060602 G96  0.0   0.1-
060601 G96  0.5+  0.0     060601 G96  0.3+  0.0     060602 G96  0.2-  0.1-
060601 G96  0.1-  0.0     060601 G96  0.2-  0.3+    060602 G96  0.2+  0.3+

Ephemeris:
2006 LB                  a,e,i = 1.68, 0.32, 7                   q = 1.1353
Date    TT    R. A. (2000) Decl.     Delta      r     Elong.  Phase     V
2006 05 25    13 46.24   -19 58.4    0.143    1.136   147.2    28.8    21.1
2006 06 04    14 28.10   -14 00.6    0.144    1.137   146.0    29.9    21.2
2006 06 14    15 11.47   -08 39.4    0.155    1.145   144.1    31.3    21.4
2006 06 24    15 51.64   -04 48.2    0.177    1.160   141.8    32.8    21.7
2006 07 04    16 26.85   -02 40.9    0.207    1.182   139.6    33.9    22.2

Kyle E. Smalley              (C) Copyright 2006 MPC           M.P.E.C. 2006-L06

Read MPEC 2006-L05 Read MPEC 2006-L07


Our Web policy. Index to the CBAT/MPC/ICQ pages.


Valid HTML 4.01!